Terug naar catalogus

THOR ABLESTAR DEB

ActiefLEO
NORAD 3842·DEBRIS·🇺🇸 United States

Gelanceerd Jun 29, 1961 vanaf Cape Canaveral Space Force Station

Loading…

Volgende Passages (komende 24 uur)

TLE

VersSource: Space-Track

Epoch: Sep 13, 2026, 11:44 UTC

1 03842U 61015JF  26256.48917818  .00000299  00000-0  38593-3 0  9998
2 03842  66.7376 173.4839 0123671  49.7407 311.4398 13.72255041247293

Volg THOR ABLESTAR DEB in realtime met AllMySat

Download on the App Store